• In Czech Republic
  • List of Countries
  • For 7 days
  • Water Temperature
  • Satellite Maps
  • Weather Map
  • Weather Widgets
  • user-avatar
    Login

    Hourly Weather Annaba

    Today, 11 December, Monday

    Time Temperature Precipitation Wind Pressure Humidity
    00:00 +12°C° 0 mm 5 mps 758 mmHg 63%
    01:00 +12°C° 0 mm 5 mps 757 mmHg 63%
    02:00 +12°C° 0 mm 5 mps 757 mmHg 62%
    03:00 +12°C° 0 mm 5 mps 756 mmHg 62%
    04:00 +12°C° 0 mm 5 mps 756 mmHg 62%
    05:00 +10°C° 0 mm 5 mps 756 mmHg 63%
    06:00 +10°C° 0 mm 5 mps 755 mmHg 64%
    07:00 +10°C° 0 mm 5 mps 755 mmHg 65%
    08:00 +13°C° 0 mm 6 mps 755 mmHg 62%
    09:00 +14°C° 0 mm 6 mps 755 mmHg 59%
    10:00 +16°C° 0 mm 6 mps 754 mmHg 57%
    11:00 +17°C° 0 mm 6 mps 754 mmHg 52%
    12:00 +20°C° 0 mm 6 mps 753 mmHg 48%
    13:00 +22°C° 0 mm 6 mps 753 mmHg 43%
    14:00 +22°C° 0 mm 5 mps 752 mmHg 45%
    15:00 +22°C° 0 mm 5 mps 752 mmHg 47%
    16:00 +21°C° 0 mm 4 mps 752 mmHg 48%
    17:00 +20°C° 0 mm 4 mps 752 mmHg 51%
    18:00 +18°C° 0 mm 4 mps 752 mmHg 54%
    19:00 +15°C° 0 mm 4 mps 752 mmHg 57%
    20:00 +15°C° 0 mm 4 mps 753 mmHg 58%
    21:00 +14°C° 0 mm 5 mps 753 mmHg 60%
    22:00 +13°C° 0 mm 5 mps 754 mmHg 61%
    23:00 +13°C° 0 mm 5 mps 754 mmHg 62%

    Tomorrow, 12 December, Tuesday

    Time Temperature Precipitation Wind Pressure Humidity
    00:00 +13°C° 0 mm 5 mps 755 mmHg 62%
    01:00 +13°C° 0 mm 5 mps 755 mmHg 63%
    02:00 +12°C° 0 mm 5 mps 755 mmHg 62%
    03:00 +12°C° 0 mm 4 mps 755 mmHg 62%
    04:00 +12°C° 0 mm 3 mps 756 mmHg 62%
    05:00 +12°C° 0 mm 3 mps 756 mmHg 61%
    06:00 +12°C° 0 mm 3 mps 757 mmHg 61%
    07:00 +13°C° 0 mm 2 mps 757 mmHg 61%
    08:00 +14°C° 0 mm 2 mps 758 mmHg 59%
    09:00 +15°C° 0 mm 2 mps 758 mmHg 56%
    10:00 +16°C° 0 mm 2 mps 758 mmHg 54%
    11:00 +17°C° 0 mm 2 mps 758 mmHg 51%
    12:00 +19°C° 0 mm 1 mps 758 mmHg 47%
    13:00 +21°C° 0 mm 1 mps 759 mmHg 44%
    14:00 +19°C° 0 mm 2 mps 759 mmHg 49%
    15:00 +19°C° 0 mm 2 mps 759 mmHg 55%
    16:00 +18°C° 0 mm 2 mps 759 mmHg 60%
    17:00 +17°C° 0 mm 2 mps 759 mmHg 66%
    18:00 +16°C° 0 mm 2 mps 760 mmHg 72%
    19:00 +15°C° 0 mm 2 mps 761 mmHg 79%
    20:00 +15°C° 0 mm 2 mps 761 mmHg 81%
    21:00 +14°C° 0 mm 2 mps 762 mmHg 84%
    22:00 +14°C° 0 mm 2 mps 762 mmHg 87%
    23:00 +14°C° 0.1 mm 2 mps 763 mmHg 88%

    Day after tomorrow, 13 December, Wednesday

    Time Temperature Precipitation Wind Pressure Humidity
    00:00 +14°C° 0.1 mm 2 mps 763 mmHg 90%
    01:00 +14°C° 0.1 mm 2 mps 763 mmHg 92%
    02:00 +14°C° 0.2 mm 2 mps 764 mmHg 93%
    03:00 +13°C° 0.2 mm 3 mps 764 mmHg 94%
    04:00 +13°C° 0.2 mm 3 mps 764 mmHg 94%
    05:00 +14°C° 0.2 mm 2 mps 764 mmHg 94%
    06:00 +14°C° 0.2 mm 2 mps 765 mmHg 94%
    07:00 +14°C° 0.2 mm 2 mps 765 mmHg 93%
    08:00 +14°C° 0.1 mm 2 mps 766 mmHg 90%
    09:00 +15°C° 0.1 mm 2 mps 766 mmHg 88%
    10:00 +15°C° 0.1 mm 2 mps 767 mmHg 85%
    11:00 +16°C° 0.2 mm 3 mps 767 mmHg 82%
    12:00 +16°C° 0.2 mm 3 mps 766 mmHg 79%
    13:00 +16°C° 0.2 mm 3 mps 766 mmHg 76%
    14:00 +16°C° 0.1 mm 3 mps 766 mmHg 77%
    15:00 +15°C° 0.1 mm 4 mps 766 mmHg 78%
    16:00 +15°C° 0.1 mm 4 mps 766 mmHg 80%
    17:00 +14°C° 0.1 mm 3 mps 766 mmHg 83%
    18:00 +13°C° 0.1 mm 3 mps 767 mmHg 86%
    19:00 +13°C° 0.1 mm 3 mps 767 mmHg 90%
    20:00 +12°C° 0 mm 3 mps 767 mmHg 90%
    21:00 +12°C° 0 mm 3 mps 768 mmHg 90%
    22:00 +11°C° 0 mm 3 mps 768 mmHg 91%
    23:00 +11°C° 0 mm 3 mps 768 mmHg 90%

    14 December, Thursday

    Time Temperature Precipitation Wind Pressure Humidity
    00:00 +11°C° 0 mm 3 mps 768 mmHg 90%
    01:00 +11°C° 0 mm 3 mps 767 mmHg 90%
    02:00 +11°C° 0 mm 3 mps 767 mmHg 90%
    03:00 +10°C° 0 mm 3 mps 767 mmHg 90%
    04:00 +10°C° 0 mm 2 mps 767 mmHg 90%
    05:00 +10°C° 0 mm 3 mps 767 mmHg 90%
    06:00 +10°C° 0 mm 3 mps 767 mmHg 90%
    07:00 +10°C° 0 mm 3 mps 767 mmHg 90%
    08:00 +11°C° 0 mm 3 mps 767 mmHg 85%
    09:00 +14°C° 0 mm 2 mps 767 mmHg 80%
    10:00 +15°C° 0 mm 2 mps 767 mmHg 76%
    11:00 +16°C° 0 mm 2 mps 766 mmHg 68%
    12:00 +18°C° 0 mm 2 mps 765 mmHg 60%
    13:00 +19°C° 0 mm 2 mps 765 mmHg 52%
    14:00 +19°C° 0 mm 2 mps 764 mmHg 53%
    15:00 +20°C° 0 mm 1 mps 764 mmHg 55%
    16:00 +20°C° 0 mm 1 mps 763 mmHg 56%
    17:00 +18°C° 0 mm 1 mps 763 mmHg 61%
    18:00 +16°C° 0 mm 1 mps 764 mmHg 66%
    19:00 +14°C° 0 mm 1 mps 764 mmHg 70%
    20:00 +14°C° 0 mm 2 mps 764 mmHg 68%
    21:00 +14°C° 0 mm 2 mps 764 mmHg 66%
    22:00 +14°C° 0 mm 2 mps 763 mmHg 64%
    23:00 +13°C° 0 mm 2 mps 763 mmHg 62%

    15 December, Friday

    Time Temperature Precipitation Wind Pressure Humidity
    00:00 +13°C° 0 mm 2 mps 763 mmHg 60%
    01:00 +12°C° 0 mm 3 mps 762 mmHg 59%
    02:00 +12°C° 0 mm 3 mps 762 mmHg 59%
    03:00 +12°C° 0 mm 3 mps 761 mmHg 59%
    04:00 +12°C° 0 mm 3 mps 761 mmHg 59%
    05:00 +12°C° 0 mm 3 mps 761 mmHg 58%
    06:00 +12°C° 0 mm 4 mps 761 mmHg 57%
    07:00 +12°C° 0 mm 4 mps 760 mmHg 57%
    08:00 +13°C° 0 mm 4 mps 760 mmHg 53%
    09:00 +15°C° 0 mm 4 mps 760 mmHg 50%
    10:00 +18°C° 0 mm 4 mps 760 mmHg 46%
    11:00 +19°C° 0 mm 4 mps 759 mmHg 42%
    12:00 +21°C° 0 mm 4 mps 758 mmHg 37%
    13:00 +23°C° 0 mm 4 mps 758 mmHg 33%
    14:00 +22°C° 0 mm 3 mps 757 mmHg 37%
    15:00 +22°C° 0 mm 3 mps 756 mmHg 41%
    16:00 +21°C° 0 mm 2 mps 756 mmHg 45%
    17:00 +20°C° 0 mm 2 mps 756 mmHg 48%
    18:00 +18°C° 0 mm 2 mps 756 mmHg 50%
    19:00 +16°C° 0 mm 1 mps 757 mmHg 53%
    20:00 +16°C° 0 mm 2 mps 756 mmHg 51%
    21:00 +16°C° 0 mm 2 mps 756 mmHg 50%
    22:00 +16°C° 0 mm 3 mps 756 mmHg 48%
    23:00 +14°C° 0 mm 3 mps 756 mmHg 51%

    16 December, Saturday

    Time Temperature Precipitation Wind Pressure Humidity
    00:00 +14°C° 0 mm 3 mps 755 mmHg 53%
    01:00 +14°C° 0 mm 3 mps 755 mmHg 55%
    02:00 +14°C° 0.1 mm 4 mps 755 mmHg 55%
    03:00 +13°C° 0.1 mm 4 mps 755 mmHg 56%
    04:00 +13°C° 0.1 mm 4 mps 754 mmHg 57%
    05:00 +13°C° 0.8 mm 4 mps 755 mmHg 61%
    06:00 +13°C° 0.8 mm 5 mps 755 mmHg 64%
    07:00 +13°C° 0.8 mm 5 mps 755 mmHg 68%
    08:00 +12°C° 1.1 mm 5 mps 756 mmHg 75%
    09:00 +12°C° 1.1 mm 5 mps 756 mmHg 82%
    10:00 +11°C° 1.1 mm 6 mps 757 mmHg 88%
    11:00 +11°C° 0.5 mm 6 mps 757 mmHg 86%
    12:00 +10°C° 0.5 mm 6 mps 757 mmHg 83%
    13:00 +10°C° 0.5 mm 6 mps 757 mmHg 81%
    14:00 +10°C° 0.8 mm 6 mps 757 mmHg 82%
    15:00 +10°C° 0.8 mm 6 mps 758 mmHg 83%
    16:00 +9°C° 0.8 mm 7 mps 758 mmHg 85%
    17:00 +9°C° 0.4 mm 7 mps 759 mmHg 83%
    18:00 +9°C° 0.4 mm 8 mps 759 mmHg 82%
    19:00 +9°C° 0.4 mm 8 mps 760 mmHg 81%
    20:00 +9°C° 0 mm 8 mps 761 mmHg 79%
    21:00 +7°C° 0 mm 8 mps 761 mmHg 78%
    22:00 +8°C° 0 mm 7 mps 762 mmHg 76%
    23:00 +8°C° 0.1 mm 7 mps 762 mmHg 76%
    Show more